Regional Weather Roundup
Issued by NWS

Home | Current Version | Previous Version | Text Only | Print | Product List | Glossary On
Versions: 1 2 3 4 5 6 7 8 9 10 11 12 13 14 15 16 17 18 19 20 21 22 23 24 25 26 27 28 29 30 31 32 33 34 35 36 37 38 39 40 41 42 43 44 45 46 47 48 49 50
779
ASUS43 KDTX 220210
RWRMI
MICHIGAN HOURLY REGIONAL WEATHER ROUNDUP
NATIONAL WEATHER SERVICE DETROIT/PONTIAC MI
900 PM EST TUE NOV 21 2017

NOTE: "FAIR" INDICATES FEW OR NO CLOUDS BELOW 12,000 FEET WITH NO
SIGNIFICANT WEATHER AND/OR OBSTRUCTION TO VISIBILITY.

MIZ047>049-052>055-059>063-066>070-074>076-081>083-220300-
SOUTHEAST LOWER MICHIGAN

CITY           SKY/WX    TMP DP  RH WIND       PRES   REMARKS
ADRIAN         CLOUDY    36  29  75 NW9       29.99R WCI  29
ALMA           CLOUDY    34  21  59 NW10G20   30.01R WCI  26
ANN ARBOR      CLOUDY    36  30  79 W9        29.96R WCI  29
BAD AXE        CLOUDY    34  22  61 NW13G23   29.94R WCI  25
CARO           CLOUDY    34  23  64 NW13G21   29.95R WCI  25
DETROIT CITY   CLOUDY    39  34  82 NW7       29.95R WCI  34
DETROIT        CLOUDY    39  33  79 W13       29.96R WCI  31
FLINT          CLOUDY    35  25  66 NW10      29.96R WCI  27
GROSSE ILE     CLOUDY    38  35  87 W8        29.95R WCI  32
HILLSDALE      CLOUDY    34  28  80 NW9       29.98R WCI  26
HOWELL         CLOUDY    35  30  82 W7        29.96R WCI  29

CITY           SKY/WX    TMP DP  RH WIND       PRES   REMARKS
JACKSON        CLOUDY    35  26  69 W10       29.99R WCI  27
LAMBERTVILLE   CLOUDY    40  36  86 NW7       29.97R WCI  35
LANSING        CLOUDY    35  26  69 NW12G25   30.00R WCI  27
LAPEER         CLOUDY    34  26  70 N12       29.95R WCI  26
MASON          CLOUDY    36  29  75 W8        29.98R WCI  29
MONROE         CLOUDY    39  32  78 W10       29.96R WCI  32
MT. CLEMENS    CLOUDY    39  39  99 W9        29.92R WCI  33
PONTIAC        CLOUDY    36  30  79 NW15      29.94R WCI  27
PORT HOPE        N/A     36  25  64 W17G28    29.92R WCI  26
PORT HURON     PTCLDY    37  30  75 NW7       29.93R WCI  32
TRI CITIES     CLOUDY    35  22  58 NW14      29.99R WCI  26
MIDLAND        CLOUDY    34  21  59 W12G17    29.99R WCI  25
TROY           CLOUDY    40  34  78 W6        29.96R
SAGINAW HB     CLOUDY    34  23  64 NW17      29.97R WCI  23
$$
MIZ043>046-050>051-056>058-064>065-071>073-077>080-220300-
SOUTHWEST LOWER MICHIGAN

CITY           SKY/WX    TMP DP  RH WIND       PRES   REMARKS
BATTLE CREEK   CLOUDY    34  25  69 NW13G22   30.02R WCI  25
BENTON HARBOR  CLOUDY    35  21  56 NW10G20   30.08R WCI  27
BIG RAPIDS     CLOUDY    31  19  63 NW13G18   30.02R WCI  21
COLDWATER      CLOUDY    34  28  76 W7        30.01R WCI  28
FREMONT        CLOUDY    32  21  65 NW14      30.05R WCI  22
HOLLAND        CLOUDY    35  22  58 NW10      30.06R WCI  27
GRAND RAPIDS   CLOUDY    34  23  64 NW16G23   30.03R WCI  24
IONIA          CLOUDY    34  23  64 NW9       30.01R WCI  27
KALAMAZOO      CLOUDY    35  23  61 NW16G24   30.04R WCI  25
LUDINGTON      FLURRIES  31  20  63 NW12G20   30.07R WCI  22
MARSHALL       CLOUDY    34  27  76 W10       30.00R WCI  26
MOUNT PLEASANT CLOUDY    33  19  56 NW12G17   30.00R WCI  24
MUSKEGON       CLOUDY    34  20  56 NW15      30.07R WCI  24
SOUTH HAVEN    CLOUDY    36  23  59 NW9G17    30.07R WCI  29
$$
MIZ016>042-220300-
NORTHERN LOWER MICHIGAN

CITY           SKY/WX    TMP DP  RH WIND       PRES   REMARKS
ALPENA         CLOUDY    30  19  63 NW14G23   29.96R WCI  19
BEAVER ISLAND  MOCLDY    28  20  70 NW13G22   30.03R WCI  18
BELLAIRE       CLOUDY    30  23  75 NW6       30.03R WCI  24
CADILLAC       CLOUDY    28  19  69 NW10G18   30.00R WCI  18
CHARLEVOIX     FLURRIES  30  19  62 NW14G22   30.05R WCI  20
FRANKFORT      CLOUDY    30  18  61 N13G25    30.08R WCI  20
GAYLORD        LGT SNOW  25  19  78 NW9       29.97R WCI  15
GRAYLING       LGT SNOW  28  22  78 NW10      29.99R WCI  18
HARBOR SPRINGS CLOUDY    29  17  60 W7        30.00R WCI  22
HOUGHTON LAKE  CLOUDY    29  19  66 NW14      29.99R WCI  18
MANISTEE       FLURRIES  30  22  72 NW13G22   30.07R WCI  20
OSCODA         CLOUDY    32  18  55 NW16G24   29.95R WCI  21
PELLSTON       CLOUDY    28  17  63 NW18G26   30.00R WCI  15
ROGERS CITY    CLOUDY    29  19  67 W14G24    29.97R WCI  18
TRAVERSE CITY  FLURRIES  29  18  63 NW15G24   30.05R WCI  18
$$
MIZ007>008-015-220300-
EASTERN UPPER MICHIGAN

CITY           SKY/WX    TMP DP  RH WIND       PRES   REMARKS
KINROSS        FLURRIES  25  15  66 NW21G28   29.95R WCI  11
MACKINAC ISLAN CLOUDY    28  18  66 NW14G25   29.98R WCI  17
NEWBERRY       SNOW      24  23  96 NW7       29.98R VSB 1/2 WCI  16
S. S. MARIE    LGT SNOW  25  18  74 N10G21    29.96R WCI  15
MUNISING         N/A     29  21  72 NW18G25   30.04R WCI  16
$$
MIZ004>006-011>014-085-220300-
CENTRAL UPPER MICHIGAN

CITY           SKY/WX    TMP DP  RH WIND       PRES   REMARKS
MANISTIQUE     LGT SNOW  23  18  81 W14G20    30.04R WCI  11
ESCANABA       FLURRIES  25  15  66 NW12      30.10R WCI  14
MENOMINEE      FLURRIES  25  13  60 NW13G20   30.14R WCI  14
SAWYER-GWINN   FLURRIES  21  16  79 W9        30.04R WCI  11
$$
MIZ001>003-009>011-084-220300-
WESTERN UPPER MICHIGAN

CITY           SKY/WX    TMP DP  RH WIND       PRES   REMARKS
IRON MOUNTAIN  FLURRIES  23  12  62 NW16      30.08R WCI  10
HOUGHTON       LGT SNOW  22  14  71 NW18      30.06R WCI   7
COPPER HARBOR    N/A     27  18  69 N21G31    30.07R WCI  13
IRONWOOD       FLURRIES  19  14  81 NW14G23   30.16  WCI   6
$$

ABBREVIATIONS USED IN REMARKS
   TC - TEMPERATURE IN CELSIUS
  WCI - WIND CHILL INDEX
   HX - HEAT INDEX
  VSB - VISIBILITY





USA.gov is the U.S. government's official web portal to all federal, state and local government web resources and services.